This is the latest recevied weather packets stored in our database for station/object BG5HLN-13. If no packets are shown the sender has not sent any weather packets the latest 10 day(s).
| Time | Temp. | Humidity | Pressure | Rain* | Wind** | Luminosity | Snow |
|---|---|---|---|---|---|---|---|
| 1777829881 | 20° C | 72% | 1015.1 hPa | 0 mm | - | - | - |
| 1777829281 | 20° C | 73% | 1015.1 hPa | 0 mm | - | - | - |
| 1777828680 | 20° C | 71% | 1015.3 hPa | 0 mm | - | - | - |
| 1777828171 | 20° C | 72% | 1015.2 hPa | 0 mm | - | - | - |
| 1777828080 | 20° C | 72% | 1015.2 hPa | 0 mm | - | - | - |
| 1777827568 | 20° C | 72% | 1015.3 hPa | 0 mm | - | - | - |
| 1777826968 | 20° C | 74% | 1015.2 hPa | 0 mm | - | - | - |
| 1777826368 | 20° C | 73% | 1015.2 hPa | 0 mm | - | - | - |
| 1777825768 | 20° C | 73% | 1014.9 hPa | 0 mm | - | - | - |
| 1777825168 | 20.56° C | 74% | 1014.7 hPa | 0 mm | - | - | - |
| 1777824568 | 20.56° C | 69% | 1014.6 hPa | 0 mm | - | - | - |
| 1777823967 | 20.56° C | 71% | 1014.7 hPa | 0 mm | - | - | - |
| 1777823368 | 20.56° C | 69% | 1014.7 hPa | 0 mm | - | - | - |
| 1777822770 | 20.56° C | 71% | 1014.8 hPa | 0 mm | - | - | - |
| 1777822768 | 20.56° C | 71% | 1014.8 hPa | 0 mm | - | - | - |
| 1777822168 | 20.56° C | 73% | 1014.8 hPa | 0 mm | - | - | - |
| 1777821568 | 20.56° C | 72% | 1014.8 hPa | 0 mm | - | - | - |
| 1777820971 | 20.56° C | 73% | 1014.6 hPa | 0 mm | - | - | - |
| 1777820967 | 20.56° C | 73% | 1014.7 hPa | 0 mm | - | - | - |
| 1777820368 | 20.56° C | 73% | 1014.9 hPa | 0 mm | - | - | - |
| 1777819768 | 20.56° C | 71% | 1014.8 hPa | 0 mm | - | - | - |
| 1777819168 | 20.56° C | 71% | 1014.6 hPa | 0 mm | - | - | - |
| 1777818568 | 20.56° C | 70% | 1014.5 hPa | 0 mm | - | - | - |
| 1777817967 | 20.56° C | 69% | 1014.6 hPa | 0 mm | - | - | - |
| 1777817370 | 20.56° C | 69% | 1014.6 hPa | 0 mm | - | - | - |
* Rain latest hour (hover to see other rain measurements)
** Current wind speed in m/s (hover to see current wind gust speed)